Weather History for Burbank, CA

Change the Weather History Date:

Sunday, September 15, 2013

  Actual Average Record
Temperature  
Mean Temperature 84 °F 73 °F  
Max Temperature 99 °F 87 °F 106 °F (1979)
Min Temperature 69 °F 60 °F 45 °F (1974)
Degree Days  
Heating Degree Days 0 0  
Month to date heating degree days 0 0  
Since 1 July heating degree days 0 0  
Cooling Degree Days 19 9  
Month to date cooling degree days 270 143  
Year to date cooling degree days 1699 1025  
Growing Degree Days 34 (Base 50)    
Moisture  
Dew Point 55 °F    
Average Humidity 41    
Maximum Humidity 61    
Minimum Humidity 20    
Precipitation  
Precipitation 0.00 in 0.01 in 0.25 in (1976)
Month to date precipitation 0.00 0.05  
Year to date precipitation 2.61 12.69  
Since 1 July precipitation 0.01 0.14  
Sea Level Pressure  
Sea Level Pressure 29.70 in    
Wind  
Wind Speed 3 mph (SE)    
Max Wind Speed 12 mph    
Max Gust Speed 18 mph    
Visibility 10 miles    
Events      
T = Trace of Precipitation, MM = Missing Value Source: NWS Daily Summary

Daily Weather History Graph

Daily Weather History Graph

Search for Another Location

Airport:

Trip Planner

Search our weather history database for the weather conditions in past years. The results will help you decide how hot, cold, wet, or windy it might be!

Date:

Astronomy

Sep. 15, 2013 Rise Set
Actual Time 6:36 AM PDT 6:59 PM PDT
Civil Twilight 6:11 AM PDT 7:24 PM PDT
Nautical Twilight 5:42 AM PDT 7:54 PM PDT
Astronomical Twilight 5:12 AM PDT 8:23 PM PDT
Moon 4:23 PM PDT (9/15) 2:29 AM PDT (9/15)
Length of Visible Light 13h 12m
Length of Day
12h 22m
Waxing Gibbous, 83% of the Moon is Illuminated
Sep 15
Waxing Gibbous
Sep 19
Full
Sep 26
Last Quarter
Oct 4
New
Oct 11
First Quarter

Hourly Weather History & Observations

Time (PDT) Temp. Heat Index Dew Point Humidity Pressure Visibility Wind Dir Wind Speed Gust Speed Precip Events Conditions
12:53 AM 73.0 °F - 55.9 °F 55% 29.67 in 10.0 mi Calm Calm - N/A   Clear
1:53 AM 73.9 °F - 55.0 °F 52% 29.67 in 10.0 mi Calm Calm - N/A   Clear
2:53 AM 72.0 °F - 55.0 °F 55% 29.67 in 10.0 mi Calm Calm - N/A   Clear
3:53 AM 72.0 °F - 53.1 °F 51% 29.67 in 10.0 mi Calm Calm - N/A   Clear
4:53 AM 71.1 °F - 55.0 °F 57% 29.68 in 10.0 mi Calm Calm - N/A   Clear
5:53 AM 70.0 °F - 55.9 °F 61% 29.69 in 10.0 mi East 3.5 mph - N/A   Clear
6:53 AM 69.1 °F - 55.9 °F 63% 29.71 in 10.0 mi Calm Calm - N/A   Clear
7:53 AM 72.0 °F - 54.0 °F 53% 29.72 in 10.0 mi Calm Calm - N/A   Clear
8:53 AM 75.9 °F - 55.0 °F 48% 29.73 in 10.0 mi Calm Calm - N/A   Clear
9:53 AM 82.9 °F 81.8 °F 53.1 °F 36% 29.73 in 10.0 mi Calm Calm - N/A   Clear
10:53 AM 88.0 °F - 52.0 °F 29% 29.73 in 10.0 mi Calm Calm - N/A   Clear
11:53 AM 91.9 °F 89.5 °F 54.0 °F 27% 29.72 in 10.0 mi SE 3.5 mph - N/A   Clear
12:53 PM 95.0 °F 93.4 °F 55.9 °F 27% 29.70 in 10.0 mi Variable 5.8 mph - N/A   Clear
1:53 PM 97.0 °F 95.0 °F 55.0 °F 24% 29.69 in 10.0 mi South 4.6 mph - N/A   Clear
2:53 PM 99.0 °F - 50.0 °F 19% 29.67 in 10.0 mi SSE 5.8 mph - N/A   Clear
3:53 PM 98.1 °F 95.7 °F 53.1 °F 22% 29.65 in 10.0 mi SSE 9.2 mph - N/A   Clear
4:53 PM 95.0 °F - 50.0 °F 22% 29.66 in 10.0 mi SE 9.2 mph - N/A   Clear
5:53 PM 91.0 °F 88.5 °F 53.1 °F 27% 29.67 in 10.0 mi ESE 11.5 mph - N/A   Clear
6:53 PM 86.0 °F 84.7 °F 55.9 °F 36% 29.68 in 10.0 mi ESE 8.1 mph - N/A   Clear
7:53 PM 82.9 °F 82.0 °F 55.0 °F 38% 29.69 in 10.0 mi ESE 6.9 mph - N/A   Clear
8:53 PM 80.1 °F 80.4 °F 57.0 °F 45% 29.71 in 10.0 mi Calm Calm - N/A   Clear
9:53 PM 79.0 °F - 57.9 °F 48% 29.73 in 10.0 mi ESE 4.6 mph - N/A   Clear
10:53 PM 77.0 °F - 57.9 °F 52% 29.74 in 10.0 mi East 3.5 mph - N/A   Clear
11:53 PM 75.0 °F - 57.9 °F 55% 29.74 in 10.0 mi Calm Calm - N/A   Clear